Regional Weather Roundup
Issued by NWS Newport/Morehead, NC

Current Version | Previous Version | Graphics & Text | Print | Product List | Glossary Off
Versions: 1 2 3 4 5 6 7 8 9 10 11 12 13 14 15 16 17 18 19 20 21 22 23 24 25 26 27 28 29 30 31 32 33 34 35 36 37 38 39 40 41 42 43 44 45 46 47 48 49 50

000
ASUS42 KMHX 250525
RWRMHX
WEATHER ROUNDUP FOR EASTERN NORTH CAROLINA
NATIONAL WEATHER SERVICE NEWPORT/MOREHEAD CITY NC
100 AM EDT WED APR 25 2018

NOTE: "FAIR" INDICATES FEW OR NO CLOUDS BELOW 12,000 FEET
WITH NO SIGNIFICANT WEATHER AND/OR OBSTRUCTIONS TO VISIBILITY

NCZ015>017-031-032-045>047-102-103-250600-
NORTH COAST

CITY           SKY/WX    TMP DP  RH WIND       PRES   REMARKS
EDENTON        NOT AVBL
ELIZABETH CITY MOCLDY    62  61  96 SE8       29.83F
KITTY HAWK     CLOUDY    59  59 100 CALM      29.83S FOG
MANTEO         CLOUDY    60  60  98 E8        29.83F

$$

NCZ045>047-081-094-103-104-250600-
CENTRAL COAST

CITY           SKY/WX    TMP DP  RH WIND       PRES   REMARKS
FRISCO         FAIR      67  65  93 S12       29.81F

$$

NCZ095-097-098-100-101-250600-
SOUTHERN COAST

CITY           SKY/WX    TMP DP  RH WIND       PRES   REMARKS
BEAUFORT       FAIR      63  60  90 W7        29.83S
CEDAR ISLAND   NOT AVBL
JACKSONVILLE   FAIR      62  60  93 S6        29.80F
PINEY ISLAND   NOT AVBL
WILMINGTON     MOCLDY    64  60  87 S12       29.81F


$$

NCZ011>013-027>030-043-044-078>080-089-090>093-098-250600-
COASTAL PLAIN

CITY           SKY/WX    TMP DP  RH WIND       PRES   REMARKS
AHOSKIE        CLOUDY    63  63 100 E5        29.81F
CLINTON        CLOUDY    62  62 100 S3        29.79F
ELIZABETHTOWN  FAIR      61  60  97 MISG      29.79S
GOLDSBORO      NOT AVBL
GREENVILLE     FAIR      64  64 100 SE6       29.82F
HAVELOCK       NOT AVBL
KENANSVILLE    CLOUDY    61  61 100 S3        29.79F
KINSTON        FAIR      61  61  98 SE5       29.80F
NEW BERN       FAIR      62  61  96 S5        29.83S
RICHLANDS      MOCLDY    61  59  94 S7        29.80F
ROCKY MOUNT    FAIR      62  61  96 VRB3      29.78F
WASHINGTON     CLOUDY    64  63  96 CALM      29.81S
WHITEVILLE     FAIR      63  60  90 SW6       29.79S

$$

AMZ130-135-150-152-154-156-158-170-250-252-270-ANZ085-086-088-633-658-670-250600-
MARINE OBSERVATIONS

STATION/POSITION TIME  TEMP    WIND        PRES    WAVE   SWELL
                       AIR SEA DIR/SP/G            HT/PER HT/PER
                 (UTC) (F)     (DEG/KT/KT) (MB)    (FT/S) (FT/S)
CHESAPEAKE LIGHT NOT AVBL
64 E VA BEACH    0450   60 49   90/ 14/ 17 1011.0   13/11  11/11
DUCK             0500   57 51  110/ 17/ 18 1010.0
2 E DUCK         0500      51                N/A     9/11   3/11
OREGON INLET     0454   56 54   80/  4/  5 1010.1
13E OREGON INLT  0448      53                N/A    12/11  11/11
HATTERAS CG      0500   66 62  180/  7/ 12 1009.3
DIAMOND BUOY     0510   72 70  180/ 17/ 21 1010.1
CAPE LOOKOUT     0500          230/  7/ 10 1010.1
BEAUFORT LAB     0500   63 63  240/  4/  7 1010.0
30 SE NEW RVR IN 0508   67 67  220/ 10/ 14 1007.6
30 SE NEW RVR IN 0500      67                N/A    10/10   3/11
27 SE WRIGHTSVLE 0508   67 65  220/ 14/ 17 1009.6
5 SE WRIGHTSVLE  0408   64 62  210/  8/ 14 1009.1
225 S CAPE HAT   0510   72 73  170/ 19/ 25 1012.7
41 SE CHARLESTON 0510      69  250/ 14/ 17 1010.5

$$



USA.gov is the U.S. government's official web portal to all federal, state and local government web resources and services.